Location: Howell Woods
(35.3600°N, 78.2900°W)
Time: 22:28:53
(UTC-05:00)

X-37B - Visible Passes

Search period start: 05 December 2021 00:00
Search period end: 15 December 2021 00:00
Orbit: 330 x 341 km, 45.0° (Epoch: 20 November)

Date Brightness Start Highest point End Pass type
(mag) Time Alt. Az. Time Alt. Az. Time Alt. Az.
05 Dec 1.7 17:39:04 10° SSW 17:41:33 27° SE 17:43:42 12° E visible
05 Dec 3.7 19:14:23 10° W 19:14:56 14° W 19:14:56 14° W visible
06 Dec 0.2 17:59:02 10° WSW 18:01:54 87° NNW 18:03:24 25° ENE visible
07 Dec 1.6 18:19:48 10° W 18:22:25 31° NNW 18:23:02 28° N visible
08 Dec 2.7 18:41:04 10° WNW 18:42:38 17° NNW 18:42:38 17° NNW visible
09 Dec 1.6 17:25:13 10° W 17:27:51 32° NNW 17:30:28 10° NE visible
10 Dec 2.5 17:46:29 10° WNW 17:48:32 18° NNW 17:50:30 10° NNE visible
11 Dec 2.7 18:07:56 10° NW 18:09:21 13° N 18:10:03 12° N visible
12 Dec 3.0 18:28:57 10° NNW 18:29:35 12° N 18:29:35 12° N visible
14 Dec 2.7 17:34:22 10° NNW 17:35:38 12° N 17:36:55 10° NNE visible
